www.pogodaiklimat.ru

АРХИВ ПОГОДЫ в Dubai

Время (UTC), дата Ветер
(напр.,м/с)
 
Видим.   Явления Облачность Т
(С)
Тd
(С)
f
(%)
Тe
(С)
Тes
(С)
Комфортность P
(гПа)
Po
(гПа)
Тmin
(С)
Tmax
(С)
R
(мм)
S
(см)
00 8.01 ЮЗ 2 10 км ясно +18.7 +10.9 60 +20 +20 тепло 1014.3 1013.8
06 8.01 Ю 2 10 км ясно +21.0 +11.5 55 +24 +30 комфорт 1016.5 1016.0 +17.2
09 8.01 СЗ 5 10 км 1/1 1050 м
[Cu hum]
+24.2 +13.3 51 +26 +32 жарко 1014.4 1013.9
12 8.01 З 4 10 км 5/5 1000 м
[Cu hum]
+23.9 +13.3 51 +26 +27 жарко 1013.3 1012.8
15 8.01 З 3 10 км ясно +22.4 +14.1 59 +26 +26 жарко 1014.5 1014.0
18 8.01 З 2 10 км 1/1 900 м
[Sc]
+22.2 +14.4 61 +25 +25 комфорт 1015.8 1015.4 +24.9
00 9.01 10 км ясно +18.8 +13.5 71 1015.1 1014.7
06 9.01 В 3 10 км 3/0
[Ci fib]
+22.0 +14.3 62 +25 +31 комфорт 1018.3 1017.8 +17.0
12 9.01 СЗ 6 10 км ясно +23.9 +15.0 57 +27 +27 жарко 1015.3 1014.8
15 9.01 СЗ 6 10 км ясно +23.9 +15.0 57 +27 +27 жарко 1015.3 1014.8
00 10.01 нст 1 8000 м мгла ясно +19.6 +15.3 76 +23 +23 комфорт 1017.2 1016.7
03 10.01 В 3 10 км ясно +18.6 +14.5 77 +20 +20 тепло 1018.3 1017.8
06 10.01 В 2 10 км ясно +21.5 +14.3 64 +24 +31 комфорт 1020.5 1020.0 +17.9
09 10.01 нст 1 10 км ясно +26.7 +10.6 36 +27 +39 жарко 1018.2 1017.7
15 10.01 С 3 10 км ясно +23.3 +14.4 57 +27 +27 душно 1018.8 1018.3
00 11.01 В 2 7000 м мгла ясно +19.9 +16.4 80 +23 +23 комфорт 1019.2 1018.7
06 11.01 Ю 2 7000 м мгла ясно +22.3 +17.5 74 +27 +33 душно 1021.7 1021.2 +18.3
09 11.01 СЗ 4 10 км ясно +25.9 +14.2 48 +28 +35 жарко 1019.4 1018.9
12 11.01 З 4 10 км ясно +26.5 +14.5 48 +29 +31 жарко 1018.1 1017.6
15 11.01 ЮЗ 2 10 км ясно +23.8 +16.9 65 +27 +27 жарко 1018.5 1018.0
00 12.01 Ю 2 6000 м мгла ясно +18.6 +15.7 83 +20 +20 тепло 1017.1 1016.6
03 12.01 Ю 3 100 м туман ?/? +16.7 +16.7 100 +16 +16 по сезону 1017.7 1017.2
06 12.01 Ю 5 3000 м в посл. час туман 8/8 60 м
[St]
+18.5 +18.5 100 +19 +20 по сезону 1018.6 1018.2 +16.6
09 12.01 З 6 10 км ясно +26.0 +15.0 51 +29 +33 душно 1015.4 1015.0
21 12.01 З 6 10 км 3/0
[Ci fib]
+22.4 +16.3 68 +27 +27 душно 1013.4 1012.9
03 13.01 Ю 4 10 км 3/3 900 м
[Sc]
+18.4 +14.7 79 +19 +19 тепло 1012.7 1012.2
06 13.01 З 6 10 км 10/0
[Ci sp]
+23.7 +12.2 48 +25 +27 комфорт 1013.8 1013.3 +18.3
09 13.01 З 8 10 км 6/3 900 м
[Sc Ci fib]
+24.1 +14.1 54 +27 +28 жарко 1012.1 1011.6
12 13.01 З 9 10 км 6/0
[Ci fib]
+23.9 +13.3 51 +26 +26 жарко 1010.8 1010.3
15 13.01 З 6 10 км 4/0
[Ci fib]
+22.2 +14.2 60 +25 +25 комфорт 1011.4 1010.9
21 13.01 З 5 10 км 3/3 900 м
[Sc]
+21.4 +13.7 61 +24 +24 комфорт 1011.2 1010.8
00 14.01 З 7 10 км 4/4 900 м
[Sc]
+21.5 +13.3 60 +24 +24 комфорт 1010.8 1010.4
12 14.01 З 10 10 км 5/0
[Ci fib]
+21.7 +6.5 37 +22 +22 комфорт 1013.3 1012.8
18 14.01 З 6 10 км 5/5 1200 м
[Sc]
+20.5 +9.9 51 +22 +22 комфорт 1015.5 1015.0 +22.7
21 14.01 З 5 10 км 6/6 1200 м
[Sc]
+20.5 +10.4 52 +22 +22 комфорт 1015.2 1014.7
03 15.01 Ю 4 10 км 6/6 1050 м
[Cu hum]
+16.7 +10.6 67 +16 +16 по сезону 1017.3 1016.7
06 15.01 Ю 4 10 км 6/4 1080 м
[Cu hum Ci fib]
+19.1 +11.0 59 +20 +23 по сезону 1019.3 1018.8 +16.3
09 15.01 нст 2 10 км 4/4 1200 м
[Sc diur, vesp]
+22.9 +11.5 49 +25 +32 комфорт 1017.4 1016.9
12 15.01 СЗ 5 10 км 9/0
[Ci sp]
+22.0 +12.7 56 +25 +26 комфорт 1016.4 1015.9
15 15.01 СЗ 4 10 км 8/0
[Ci sp]
+21.0 +13.3 61 +24 +24 комфорт 1017.7 1017.2
18 15.01 СЗ 2 10 км 5/0
[Ci fib]
+20.6 +13.4 63 +24 +24 комфорт 1018.5 1018.0 +24.0
21 15.01 В 2 10 км 4/0
[Ci fib]
+20.0 +13.1 64 +22 +22 комфорт 1017.9 1017.4
00 16.01 Ю 2 10 км 3/0
[]
+18.2 +12.9 71 +19 +19 тепло 1016.9 1016.4
03 16.01 Ю 2 10 км ясно +16.4 +12.2 76 +17 +17 по сезону 1018.5 1017.9
06 16.01 Ю 2 10 км ясно +19.8 +13.1 65 +22 +29 комфорт 1019.7 1019.2 +16.1
15 16.01 З 4 10 км 3/0
[Ac trans]
+21.2 +14.5 66 +24 +24 комфорт 1018.0 1017.5
18 16.01 З 4 10 км ясно +21.2 +14.7 66 +24 +24 комфорт 1018.8 1018.3 +23.4
03 17.01 Ю 3 8000 м мгла 4/4 750 м
[Sc]
+17.4 +13.8 79 +18 +18 по сезону 1019.5 1019.0
09 17.01 СЗ 4 10 км 4/4 1000 м
[Sc]
+23.6 +13.0 51 +26 +30 жарко 1018.4 1018.0
12 17.01 СЗ 4 10 км 1/1 1200 м
[Sc]
+23.6 +11.8 47 +25 +27 комфорт 1016.7 1016.3
15 17.01 СЗ 4 10 км ясно +22.4 +12.5 53 +25 +25 комфорт 1017.8 1017.4
21 17.01 Ю 2 10 км ясно +21.3 +10.3 49 +23 +23 комфорт 1018.2 1017.7
00 18.01 Ю 2 10 км ясно +17.9 +12.6 71 +19 +19 тепло 1018.2 1017.6
03 18.01 Ю 2 10 км 3/3 900 м
[Sc]
+16.3 +11.7 74 +16 +16 по сезону 1019.5 1019.0
06 18.01 Ю 3 10 км 6/0
[Ci fib]
+20.3 +12.1 59 +23 +28 комфорт 1021.2 1020.7 +16.2
09 18.01 С 3 10 км 8/3 1050 м
[Cu hum Ci fib]
+23.7 +11.6 47 +25 +31 комфорт 1018.8 1018.3

 

Местоположение метеостанции Dubai (ОАЭ): широта 25.25 долгота 55.33 высота над уровнем моря 5 м.

В архиве по умолчанию представлена погода в Dubai за последнюю неделю. Архивные данные за месяц целиком и за предыдущие месяцы, начиная с января 2011 года, Вы можете получить, выбрав интересующий диапазон дат из раскрывающегося списка и нажав кнопку "Ввод!".

Внимание! Время в таблицах - всемирное. Для получения местного времени необходимо прибавить поправку, которая в Dubai равна 4 ч.

Ветер - указаны скорость ветра в м/с - средняя за 10 мин, порывы в срок и между сроками (в фигурных скобках) и направление, откуда дует ветер: С - северный, СВ - северо-восточный, В - восточный, ЮВ - юго-восточный, Ю - южный, ЮЗ - юго-западный, З - западный, СЗ - северо-западный.
Видимость - горизонтальная дальность видимости в метрах или километрах. При видимости от 1 до 10 км при отсутствии осадков обычно наблюдается дымка, при ухудшении видимости до 1 км и менее - туман. В сухую погоду видимость может ухудшаться дымом, пылью или мглою.
Явления - указаны атмосферные явления, наблюдавшиеся в срок или в последний час перед сроком; фигурными скобками обозначены явления, наблюдавшиеся между сроками (за 1-3 часа до срока); квадратными скобками обозначены град или гололедные отложения с указанием их диаметра в мм.
Облачность - указаны через наклонную черту общая и нижняя облачность в баллах и высота нижней границы облаков в метрах; квадратными скобками обозначены формы облаков: Ci - перистые, Cs - перисто-слоистые, Cc - перисто-кучевые, Ac - высококучевые, As - высокослоистые, Sc - слоисто-кучевые, Ns - слоисто-дождевые, Cu - кучевые, Cb - кучево-дождевые. Подробнее классификацию облаков см. в Атласе облаков (PDF).
T - Температура воздуха - температура, измеренная на высоте 2 м над землей.
Td - Температура точки росы - температура, при понижении до которой содержащийся в воздухе водяной пар достигнет насыщения.
f - Относительная влажность воздуха - влажноcть воздуха, измеренная на высоте 2 м над землей.
Te - Эффективная температура - температура, которую ощущает одетый по сезону человек в тени. Характеристика душности погоды. При расчете учитывается влияние влажности воздуха и скорости ветра на теплоощущения человека.
Tes - Эффективная температура на солнце - температура, которую ощущает человек, с поправкой на солнечный нагрев. Характеристика знойности погоды. Зависит от высоты солнца над горизонтом, облачности и скорости ветра. Ночью, в пасмурную погоду, а также при ветре 12 м/с и более поправка равна нулю.
P - Атмосферное давление - приведенное к уровню моря атмосферное давление.
Po - Атмосферное давление - измеренное на уровне метеостанции атмосферное давление.
Tmin - Минимальная температура - минимум температуры воздуха на высоте 2 м над землей.
Tmax - Максимальная температура - максимум температуры воздуха на высоте 2 м над землей.
R - Количество осадков - Количество выпавших осадков, мм. При наведении курсора мыши на число - период времени, за который выпало указанное количество осадков.
S - Снежный покров - Высота снежного покрова, см. При наведении курсора мыши на число - состояние снежного покрова и степень покрытия местности в баллах.